Content
SEND FEEDBACK

Daily
Averages
Monthly
Summary
Germany

MUNICH, GERMANY


Home > Europe > Germany
Elevation: 1735 feet     Latitude: 48 08N     Longitude: 011 42E

WEATHER
 
SELECT A DAY
Number of Records: 297,836;   Date Range: 7/1/96 - 11/26/14
 
SHARE

PRINT THIS DATA

[ ← Previous Day ]
WEATHER ALMANAC - OCTOBER 29, 2013
[ Next Day → ]
[ °C ]   °F
Weather ElementAverageHighLow
Temperature51.4 °F57.2 °F (12:50 am)48.2 °F (7:20 am)
Dewpoint44.9 °F48.2 °F (8:50 am)42.8 °F (2:20 am)
Humidity79 %94 % (8:50 am)63 % (2:20 am)
Barometer30.05 in30.12 in (9:50 pm)29.95 in (12:50 am)
Wind Speed8.8 mph15 mph (1:20 pm)
Weather ElementAverage
Visibility6.2 mi
Wind DirectionWSW (234.3 °)

Weather ElementTotal
Precipitation---
Heating Degree Days12.3 (Base 65)
Growing Degree Days2.7 (Base 50)
Averaged from 47 records on October 29, 2013
WEATHER CONDITIONS BREAKOUT
WIND DIRECTION BREAKOUT
WEATHER BY HOUR - OCTOBER 29, 2013
[ °C ]   °F
Local TimeTemperatureDewpointHumidityBarometerVisibilityWind DirectionWind SpeedGust SpeedPrecipitationEventsConditions
12:50 AM57.2 °F46.4 °F67 %29.95 in6.2 miWest (280°)10.4 mphPartly Cloudy
1:20 AM55.4 °F46.4 °F72 %29.95 in6.2 miWest (270°)9.2 mphPartly Cloudy
1:50 AM55.4 °F46.4 °F72 %29.95 in6.2 miWest (260°)9.2 mphPartly Cloudy
2:20 AM55.4 °F42.8 °F63 %29.95 in6.2 miWest (270°)12.7 mphPartly Cloudy
2:50 AM55.4 °F42.8 °F63 %29.98 in6.2 miWest (270°)12.7 mphMostly Cloudy
3:20 AM53.6 °F42.8 °F67 %29.98 in6.2 miWest (270°)11.5 mphMostly Cloudy
3:50 AM53.6 °F42.8 °F67 %29.98 in6.2 miWest (270°)12.7 mphMostly Cloudy
4:20 AM53.6 °F42.8 °F67 %29.98 in6.2 miWest (260°)9.2 mphMostly Cloudy
4:50 AM51.8 °F42.8 °F71 %29.98 in6.2 miWSW (250°)10.4 mphMostly Cloudy
5:20 AM51.8 °F42.8 °F71 %30.01 in6.2 miWest (260°)10.4 mphRainLight Rain
5:50 AM50.0 °F44.6 °F82 %30.01 in6.2 miWSW (250°)9.2 mphRainLight Rain
6:20 AM50.0 °F44.6 °F82 %30.01 in6.2 miWSW (240°)6.9 mphRainLight Rain
6:50 AM50.0 °F44.6 °F82 %30.01 in6.2 miSSW (210°)6.9 mphRainLight Rain
7:20 AM48.2 °F44.6 °F87 %30.04 in6.2 miSW (230°)8.1 mphRainRain
7:50 AM48.2 °F46.4 °F93 %30.06 in6.2 miSSW (200°)6.9 mphRainLight Rain
8:20 AM48.2 °F46.4 °F93 %30.06 in6.2 miSSW (200°)8.1 mphRainLight Rain
8:50 AM50.0 °F48.2 °F94 %30.06 in6.2 miSSW (200°)9.2 mphRainLight Rain
9:20 AM50.0 °F46.4 °F87 %30.06 in6.2 miSW (230°)12.7 mphRainLight Rain
9:50 AM48.2 °F46.4 °F93 %30.09 in6.2 miSW (230°)11.5 mphRainLight Rain
10:20 AM48.2 °F46.4 °F93 %30.06 in6.2 miSW (220°)11.5 mphRainLight Rain
10:50 AM48.2 °F46.4 °F93 %30.09 in6.2 miSW (220°)9.2 mphMostly Cloudy
11:20 AM50.0 °F46.4 °F87 %30.06 in6.2 miSW (230°)9.2 mphMostly Cloudy
11:50 AM50.0 °F46.4 °F87 %30.06 in6.2 miSW (230°)10.4 mphMostly Cloudy
12:20 PM51.8 °F46.4 °F82 %30.06 in6.2 miWSW (240°)11.5 mphMostly Cloudy
12:50 PM53.6 °F48.2 °F82 %30.06 in6.2 miWSW (250°)12.7 mphMostly Cloudy
1:20 PM53.6 °F44.6 °F72 %30.06 in6.2 miWSW (250°)15.0 mphMostly Cloudy
1:50 PM53.6 °F44.6 °F72 %30.04 in6.2 miWSW (250°)11.5 mphMostly Cloudy
2:20 PM55.4 °F44.6 °F67 %30.04 in6.2 miWest (260°)10.4 mphMostly Cloudy
2:50 PM55.4 °F42.8 °F63 %30.04 in6.2 miWSW (250°)9.2 mphMostly Cloudy
3:20 PM53.6 °F42.8 °F67 %30.06 in6.2 miWest (260°)6.9 mphMostly Cloudy
3:50 PM53.6 °F42.8 °F67 %30.06 in6.2 miWest (270°)5.8 mphMostly Cloudy
4:20 PM53.6 °F42.8 °F67 %30.04 in6.2 miWSW (250°)6.9 mphMostly Cloudy
4:50 PM51.8 °F42.8 °F71 %30.06 in6.2 miSW (220°)5.8 mphMostly Cloudy
5:20 PM51.8 °F42.8 °F71 %30.06 in6.2 miSouth (190°)4.6 mphMostly Cloudy
5:50 PM50.0 °F42.8 °F76 %30.06 inSouth (180°)4.6 mphClear
6:20 PM51.8 °F44.6 °F76 %30.09 inSouth (180°)6.9 mphClear
6:50 PM50.0 °F44.6 °F82 %30.09 inSouth (190°)6.9 mphClear
7:20 PM50.0 °F46.4 °F87 %30.09 inSSW (200°)5.8 mphClear
7:50 PM50.0 °F46.4 °F87 %30.09 inSouth (190°)8.1 mphClear
8:20 PM50.0 °F46.4 °F87 %30.09 inSSW (210°)8.1 mphClear
8:50 PM50.0 °F46.4 °F87 %30.09 inSSW (200°)5.8 mphClear
9:20 PM50.0 °F46.4 °F87 %30.09 inSW (220°)6.9 mphClear
9:50 PM50.0 °F46.4 °F87 %30.12 inSW (230°)8.1 mphClear
10:20 PM50.0 °F44.6 °F82 %30.12 inSW (230°)9.2 mphClear
10:50 PM48.2 °F44.6 °F87 %30.12 in6.2 miWSW (250°)5.8 mphRainLight Rain
11:20 PM48.2 °F44.6 °F87 %30.12 in6.2 miWSW (240°)4.6 mphRainLight Rain
11:50 PM48.2 °F44.6 °F87 %30.12 inWSW (250°)4.6 mphClear
Hourly data recorded from EDDM, located miles away from Munich, Germany







STORIES FROM OUR PARTNERS